FW6471 Weather Reports


Display with metric or nautical units.
time (UTC)temp
F
wind
direction
speed
MPH
gust
MPH
rain 1hr
in
rain 24hr
in
rain mn
in
humidity
%
barometer
mb
20260906220109 77 167 0.0 0.0 0.00 0.66 0.66 94 1011.6
20260906214605 77 167 0.0 0.0 0.01 0.66 0.66 93 1011.5
20260906214105 76 167 0.0 0.0 0.05 0.66 0.66 93 1011.6
20260906213605 76 167 0.0 0.0 0.49 0.66 0.66 93 1011.6
20260906213105 76 167 0.0 0.0 0.59 0.66 0.66 93 1011.7
20260906212605 76 167 0.0 0.0 0.60 0.66 0.66 93 1011.8
20260906212105 76 167 0.0 0.0 0.64 0.66 0.66 93 1011.9
20260906211605 76 167 0.0 0.0 0.66 0.66 0.66 92 1012.0
20260906211105 76 167 0.0 0.0 0.66 0.66 0.66 92 1012.0
20260906210109 75 167 0.0 0.0 0.66 0.66 0.66 91 1011.9
20260906205605 75 146 0.0 0.0 0.66 0.66 0.66 91 1012.0
20260906205105 75 146 0.0 0.0 0.66 0.66 0.66 90 1012.2
20260906204605 76 151 0.0 1.0 0.65 0.65 0.65 89 1012.3
20260906204105 78 111 0.0 7.0 0.61 0.61 0.61 87 1012.8
20260906203605 80 293 1.0 5.0 0.17 0.17 0.17 87 1012.7
20260906203105 82 238 0.0 1.0 0.07 0.07 0.07 86 1012.5
20260906202605 83 27 0.0 0.0 0.06 0.06 0.06 83 1012.2
20260906201605 88 318 0.0 2.0 0.00 0.00 0.00 79 1012.0
20260906201105 88 157 0.0 0.0 0.00 0.00 0.00 79 1012.1
20260906200605 88 157 0.0 0.0 0.00 0.00 0.00 78 1012.2
20260906195604 88 157 0.0 0.0 0.00 0.00 0.00 78 1012.3
20260906195105 88 307 0.0 1.0 0.00 0.00 0.00 77 1012.6
20260906194605 88 323 0.0 0.0 0.00 0.00 0.00 77 1012.7
20260906194106 88 321 0.0 0.0 0.00 0.00 0.00 78 1012.7
20260906193105 88 320 0.0 0.0 0.00 0.00 0.00 75 1012.8
20260906192605 88 302 0.0 1.0 0.00 0.00 0.00 75 1012.9
20260906192105 88 324 0.0 0.0 0.00 0.00 0.00 77 1012.9
20260906191105 88 306 0.0 2.0 0.00 0.00 0.00 76 1013.0
20260906190605 88 317 0.0 1.0 0.00 0.00 0.00 76 1013.1
20260906190110 88 330 0.0 0.0 0.00 0.00 0.00 76 1013.2
20260906185605 88 327 0.0 1.0 0.00 0.00 0.00 75 1013.2
20260906185105 88 321 0.0 2.0 0.00 0.00 0.00 75 1013.2
20260906184605 88 335 0.0 0.0 0.00 0.00 0.00 79 1013.3
20260906184105 87 335 0.0 2.0 0.00 0.00 0.00 76 1013.3
20260906183605 87 315 0.0 0.0 0.00 0.00 0.00 78 1013.3
20260906183104 87 305 0.0 1.0 0.00 0.00 0.00 78 1013.4
20260906182605 87 317 0.0 0.0 0.00 0.00 0.00 78 1013.5
20260906181105 87 316 0.0 3.0 0.00 0.00 0.00 77 1013.6
20260906180604 87 309 0.0 3.0 0.00 0.00 0.00 77 1013.6
20260906180109 88 288 0.0 12.0 0.00 0.00 0.00 77 1013.5
20260906175605 89 311 3.0 12.0 0.00 0.00 0.00 78 1013.4
20260906175105 90 307 0.0 7.0 0.00 0.00 0.00 78 1013.5
20260906174105 90 319 3.0 8.0 0.00 0.00 0.00 75 1013.7
20260906173605 91 319 1.0 6.0 0.00 0.00 0.00 74 1013.7
20260906173105 91 357 0.0 0.0 0.00 0.00 0.00 72 1013.7
20260906172605 91 296 0.0 3.0 0.00 0.00 0.00 75 1013.7
20260906171105 90 314 0.0 1.0 0.00 0.00 0.00 75 1014.3
20260906170605 90 298 0.0 1.0 0.00 0.00 0.00 73 1014.2
20260906170110 90 329 0.0 2.0 0.00 0.00 0.00 73 1014.3
20260906165105 90 316 0.0 1.0 0.00 0.00 0.00 73 1014.2
20260906164604 90 331 0.0 1.0 0.00 0.00 0.00 76 1014.2
20260906164105 89 327 0.0 1.0 0.00 0.00 0.00 74 1014.4
20260906163604 90 315 0.0 0.0 0.00 0.00 0.00 74 1014.4
20260906163105 89 309 0.0 2.0 0.00 0.00 0.00 74 1014.4
20260906162605 89 307 0.0 1.0 0.00 0.00 0.00 76 1014.4
20260906162105 89 314 0.0 3.0 0.00 0.00 0.00 75 1014.4
20260906161604 89 321 0.0 1.0 0.00 0.00 0.00 77 1014.5
20260906161105 90 310 0.0 3.0 0.00 0.00 0.00 72 1014.6
20260906160605 90 189 0.0 0.0 0.00 0.00 0.00 75 1014.6
20260906160110 90 166 0.0 0.0 0.00 0.00 0.00 74 1014.7
20260906155605 89 343 0.0 1.0 0.00 0.00 0.00 77 1014.7
20260906155104 89 214 0.0 0.0 0.00 0.00 0.00 77 1014.8
20260906154605 88 332 0.0 2.0 0.00 0.00 0.00 76 1014.8
20260906154104 88 321 0.0 0.0 0.00 0.00 0.00 75 1014.8
20260906153605 89 316 0.0 0.0 0.00 0.00 0.00 76 1014.8
20260906153104 88 318 0.0 0.0 0.00 0.00 0.00 79 1014.8
20260906152605 88 320 0.0 0.0 0.00 0.00 0.00 77 1014.8
20260906152105 88 320 0.0 0.0 0.00 0.00 0.00 77 1014.8
20260906151605 88 335 0.0 0.0 0.00 0.00 0.00 77 1014.7
20260906151105 87 335 0.0 0.0 0.00 0.00 0.00 79 1014.8
20260906150604 87 321 0.0 0.0 0.00 0.00 0.00 82 1014.9
20260906145605 87 326 0.0 0.0 0.00 0.00 0.00 81 1015.1
20260906145104 86 273 0.0 0.0 0.00 0.00 0.00 85 1015.0
20260906144105 84 205 0.0 0.0 0.00 0.00 0.00 86 1015.0
20260906143605 84 204 0.0 0.0 0.00 0.00 0.00 86 1015.1
20260906143104 85 203 0.0 0.0 0.00 0.00 0.00 86 1015.1
20260906142104 85 203 0.0 0.0 0.00 0.00 0.00 85 1015.0
20260906141105 85 203 0.0 0.0 0.00 0.00 0.00 85 1015.1
20260906140604 84 228 0.0 0.0 0.00 0.00 0.00 86 1014.9
20260906140108 84 288 0.0 0.0 0.00 0.00 0.00 87 1015.1
20260906135604 83 201 0.0 0.0 0.00 0.00 0.00 88 1015.1
20260906135105 83 183 0.0 0.0 0.00 0.00 0.00 90 1015.0
20260906133605 81 357 0.0 0.0 0.00 0.00 0.00 93 1015.0
20260906133104 80 291 0.0 0.0 0.00 0.00 0.00 94 1015.0
20260906132104 79 321 0.0 0.0 0.00 0.00 0.00 94 1015.1
20260906131604 79 321 0.0 0.0 0.00 0.00 0.00 94 1015.1
20260906131105 79 321 0.0 0.0 0.00 0.00 0.00 95 1015.1
20260906130605 78 321 0.0 0.0 0.00 0.00 0.00 95 1015.0
20260906130108 78 321 0.0 0.0 0.00 0.00 0.00 95 1015.0
20260906125604 78 321 0.0 0.0 0.00 0.00 0.00 95 1015.1
20260906125105 78 321 0.0 0.0 0.00 0.00 0.00 95 1015.2
20260906124605 78 321 0.0 0.0 0.00 0.00 0.00 95 1015.2
20260906124104 77 321 0.0 0.0 0.00 0.00 0.00 96 1015.1
20260906123604 77 321 0.0 0.0 0.00 0.00 0.00 95 1015.1
20260906123105 77 321 0.0 0.0 0.00 0.00 0.00 96 1015.1
20260906122605 76 321 0.0 0.0 0.00 0.00 0.00 95 1015.1
20260906122105 76 321 0.0 0.0 0.00 0.00 0.00 95 1015.1
20260906121604 76 321 0.0 0.0 0.00 0.00 0.00 95 1015.0
20260906120108 75 321 0.0 0.0 0.00 0.00 0.00 95 1014.6
20260906115104 75 321 0.0 0.0 0.00 0.00 0.00 95 1014.4
20260906114604 75 321 0.0 0.0 0.00 0.00 0.00 95 1014.4
20260906114105 74 321 0.0 0.0 0.00 0.00 0.00 95 1014.3
20260906113604 74 321 0.0 0.0 0.00 0.00 0.00 95 1014.3
20260906113104 74 321 0.0 0.0 0.00 0.00 0.00 95 1014.2
20260906111604 74 321 0.0 0.0 0.00 0.00 0.00 94 1014.1
20260906111104 74 321 0.0 0.0 0.00 0.00 0.00 94 1014.0
20260906105604 74 321 0.0 0.0 0.00 0.00 0.00 94 1013.9
20260906104104 74 321 0.0 0.0 0.00 0.00 0.00 94 1013.8
20260906103605 74 321 0.0 0.0 0.00 0.00 0.00 94 1013.7
20260906103104 75 321 0.0 0.0 0.00 0.00 0.00 94 1013.5
20260906102604 75 321 0.0 0.0 0.00 0.00 0.00 94 1013.5
20260906101604 75 321 0.0 0.0 0.00 0.00 0.00 94 1013.4
20260906101104 74 321 0.0 0.0 0.00 0.00 0.00 94 1013.4
20260906100604 74 321 0.0 0.0 0.00 0.00 0.00 94 1013.3
20260906100108 74 321 0.0 0.0 0.00 0.00 0.00 94 1013.3
20260906095604 75 321 0.0 0.0 0.00 0.00 0.00 94 1013.2
20260906095104 75 321 0.0 0.0 0.00 0.00 0.00 94 1013.2
20260906094604 75 321 0.0 0.0 0.00 0.00 0.00 94 1013.2
20260906094104 75 321 0.0 0.0 0.00 0.00 0.00 94 1013.1
20260906093604 75 321 0.0 0.0 0.00 0.00 0.00 94 1013.1
20260906093104 75 321 0.0 0.0 0.00 0.00 0.00 94 1013.0
20260906092104 75 321 0.0 0.0 0.00 0.00 0.00 94 1013.1
20260906091604 75 321 0.0 0.0 0.00 0.00 0.00 94 1013.1
20260906091105 75 321 0.0 0.0 0.00 0.00 0.00 94 1013.0
20260906090604 75 321 0.0 0.0 0.00 0.00 0.00 94 1012.9
20260906090109 75 321 0.0 0.0 0.00 0.00 0.00 94 1012.9
20260906085604 75 321 0.0 0.0 0.00 0.00 0.00 94 1012.9
20260906085104 75 321 0.0 0.0 0.00 0.00 0.00 94 1012.8
20260906084603 75 321 0.0 0.0 0.00 0.00 0.00 94 1012.8
20260906083605 75 321 0.0 0.0 0.00 0.00 0.00 94 1012.7
20260906082104 75 321 0.0 0.0 0.00 0.00 0.00 94 1012.6
20260906081104 75 321 0.0 0.0 0.00 0.00 0.00 94 1012.6
20260906080604 75 321 0.0 0.0 0.00 0.00 0.00 94 1012.6
20260906080108 75 321 0.0 0.0 0.00 0.00 0.00 94 1012.6
20260906075604 75 321 0.0 0.0 0.00 0.00 0.00 94 1012.6
20260906075104 75 321 0.0 0.0 0.00 0.00 0.00 94 1012.6
20260906074604 75 321 0.0 0.0 0.00 0.00 0.00 94 1012.6
20260906074104 75 321 0.0 0.0 0.00 0.00 0.00 94 1012.7
20260906073604 75 321 0.0 0.0 0.00 0.00 0.00 94 1012.6
20260906073104 75 321 0.0 0.0 0.00 0.00 0.00 94 1012.6
20260906072604 75 321 0.0 0.0 0.00 0.00 0.00 94 1012.7
20260906072104 76 321 0.0 0.0 0.00 0.00 0.00 94 1012.8
20260906071604 76 321 0.0 0.0 0.00 0.00 0.00 94 1012.8
20260906071104 76 321 0.0 0.0 0.00 0.00 0.00 94 1012.9
20260906070604 76 321 0.0 0.0 0.00 0.00 0.00 94 1013.0
20260906070108 76 321 0.0 0.0 0.00 0.00 0.00 93 1013.1
20260906065604 76 321 0.0 0.0 0.00 0.00 0.00 93 1013.1
20260906065104 76 321 0.0 0.0 0.00 0.00 0.00 93 1013.2
20260906064604 76 321 0.0 0.0 0.00 0.00 0.00 93 1013.3
20260906064103 76 321 0.0 0.0 0.00 0.00 0.00 93 1013.3
20260906063103 76 321 0.0 0.0 0.00 0.00 0.00 93 1013.6
20260906062604 76 321 0.0 0.0 0.00 0.00 0.00 93 1013.7
20260906061603 76 321 0.0 0.0 0.00 0.00 0.00 93 1014.0
20260906060604 76 321 0.0 0.0 0.00 0.00 0.00 93 1014.2
20260906055604 76 321 0.0 0.0 0.00 0.00 0.00 93 1014.1
20260906055103 76 321 0.0 0.0 0.00 0.00 0.00 93 1014.1
20260906054605 76 321 0.0 0.0 0.00 0.00 0.00 93 1014.0
20260906053604 76 321 0.0 0.0 0.00 0.00 0.00 93 1014.2
20260906053103 76 321 0.0 0.0 0.00 0.00 0.00 93 1014.2
20260906052603 76 321 0.0 0.0 0.00 0.00 0.00 93 1014.3
20260906052104 76 321 0.0 0.0 0.00 0.00 0.00 93 1014.3
20260906051603 77 321 0.0 0.0 0.00 0.00 0.00 93 1014.4
20260906050110 77 321 0.0 0.0 0.00 0.00 0.00 93 1014.5
20260906045606 77 321 0.0 0.0 0.00 0.00 0.00 93 1014.4
20260906045106 77 321 0.0 0.0 0.00 0.00 0.00 93 1014.5
20260906044606 77 321 0.0 0.0 0.00 0.00 0.00 93 1014.6
20260906044105 77 321 0.0 0.0 0.00 0.00 0.00 93 1014.7
20260906043606 77 321 0.0 0.0 0.00 0.00 0.00 93 1014.8
20260906043105 77 321 0.0 0.0 0.00 0.00 0.00 93 1014.8
20260906042606 77 321 0.0 0.0 0.00 0.00 0.00 93 1014.7
20260906042106 77 321 0.0 0.0 0.00 0.00 0.00 93 1014.6
20260906041606 77 321 0.0 0.0 0.00 0.00 0.00 93 1014.6
20260906041106 77 321 0.0 0.0 0.00 0.00 0.00 92 1014.7
20260906035106 77 321 0.0 0.0 0.00 0.00 0.00 92 1014.9
20260906034606 77 321 0.0 0.0 0.00 0.00 0.00 92 1014.9
20260906034105 77 321 0.0 0.0 0.00 0.00 0.00 92 1014.8
20260906033106 78 321 0.0 0.0 0.00 0.00 0.00 92 1014.7
20260906032606 78 321 0.0 0.0 0.00 0.00 0.00 92 1014.8
20260906032106 78 321 0.0 0.0 0.00 0.00 0.00 92 1014.7
20260906031605 78 321 0.0 0.0 0.00 0.00 0.00 92 1014.7
20260906031106 78 321 0.0 0.0 0.00 0.00 0.00 92 1014.7
20260906030606 78 321 0.0 0.0 0.00 0.00 0.00 91 1014.7
20260906030109 78 321 0.0 0.0 0.00 0.00 0.00 91 1014.7
20260906025605 78 321 0.0 0.0 0.00 0.00 0.00 91 1014.7
20260906024605 78 321 0.0 0.0 0.00 0.00 0.00 91 1014.6
20260906024107 78 321 0.0 0.0 0.00 0.00 0.00 91 1014.7
20260906023606 78 321 0.0 0.0 0.00 0.00 0.00 91 1014.7
20260906023105 78 321 0.0 0.0 0.00 0.00 0.00 91 1014.7
20260906021105 79 321 0.0 0.0 0.00 0.00 0.00 90 1014.7
20260906020605 79 321 0.0 0.0 0.00 0.00 0.00 90 1014.7
20260906020109 79 321 0.0 0.0 0.00 0.00 0.00 90 1014.6
20260906015606 79 321 0.0 0.0 0.00 0.00 0.00 90 1014.5
20260906015106 80 321 0.0 0.0 0.00 0.00 0.00 89 1014.6
20260906014606 80 321 0.0 0.0 0.00 0.00 0.00 89 1014.6
20260906014106 80 321 0.0 0.0 0.00 0.00 0.00 89 1014.4
20260906013605 80 321 0.0 0.0 0.00 0.00 0.00 89 1014.3
20260906013105 80 321 0.0 0.0 0.00 0.00 0.00 88 1014.1
20260906012605 80 321 0.0 0.0 0.00 0.00 0.00 88 1014.1
20260906012106 81 321 0.0 0.0 0.00 0.00 0.00 88 1014.1
20260906011606 81 321 0.0 0.0 0.00 0.00 0.00 88 1014.1
20260906011105 81 321 0.0 0.0 0.00 0.00 0.00 87 1014.1
20260906010110 81 321 0.0 0.0 0.00 0.00 0.00 87 1014.0
20260906005606 82 321 0.0 0.0 0.00 0.00 0.00 87 1014.0
20260906005105 82 321 0.0 0.0 0.00 0.00 0.00 86 1013.8
20260906004605 82 321 0.0 0.0 0.00 0.00 0.00 86 1013.7
20260906004106 82 321 0.0 0.0 0.00 0.00 0.00 85 1013.8
20260906003605 83 321 0.0 0.0 0.00 0.00 0.00 85 1013.8
20260906003105 83 321 0.0 0.0 0.00 0.00 0.00 84 1013.7
20260906002106 83 321 0.0 0.0 0.00 0.00 0.00 83 1013.8
20260906001605 83 321 0.0 0.0 0.00 0.00 0.00 83 1013.8
20260906001105 84 321 0.0 0.0 0.00 0.00 0.00 83 1013.8
20260906000606 84 321 0.0 0.0 0.00 0.00 0.00 83 1013.7
20260906000109 84 321 0.0 0.0 0.00 0.00 0.00 83 1013.7
20260905235606 84 321 0.0 0.0 0.00 0.00 0.00 82 1013.6
20260905235106 85 321 0.0 0.0 0.00 0.00 0.00 82 1013.8
20260905234605 85 321 0.0 0.0 0.00 0.00 0.00 81 1013.8
20260905233105 86 308 0.0 0.0 0.00 0.00 0.00 80 1013.7
20260905232605 86 312 0.0 0.0 0.00 0.00 0.00 79 1013.7
20260905232105 86 301 0.0 0.0 0.00 0.00 0.00 78 1013.6
20260905230605 87 314 0.0 0.0 0.00 0.00 0.00 77 1013.7
20260905230109 87 295 0.0 0.0 0.00 0.01 0.00 76 1013.8
20260905225105 88 327 0.0 0.0 0.00 0.02 0.00 75 1013.8
20260905224106 88 336 0.0 1.0 0.00 0.04 0.00 75 1013.8
20260905222605 88 324 0.0 1.0 0.00 0.18 0.00 73 1013.6
20260905222105 88 314 1.0 5.0 0.00 0.23 0.00 72 1013.7
20260905221605 89 329 3.0 7.0 0.00 0.29 0.00 72 1013.7